Regional Weather Roundup
Issued by NWS

Home | Current Version | Previous Version | Graphics & Text | Print | Product List | Glossary On
Versions: 1 2 3 4 5 6 7 8 9 10 11 12 13 14 15 16 17 18 19 20 21 22 23 24 25 26 27 28 29 30 31 32 33 34 35 36 37 38 39 40 41 42 43 44 45 46 47 48 49 50
681
ASUS43 KIND 200659
RWRIN

WEATHER ROUNDUP FOR INDIANA
NATIONAL WEATHER SERVICE INDIANAPOLIS IN
200 AM EST MON FEB 20 2017

NOTE: "FAIR" INDICATES FEW OR NO CLOUDS BELOW 12,000 FEET WITH NO
SIGNIFICANT WEATHER AND/OR OBSTRUCTIONS TO VISIBILITY.

* - STATION DOES NOT REPORT WEATHER SUCH AS PRECIPITATION OR FOG.

+ - STATION NOT QUALITY CONTROLLED BY THE NATIONAL WEATHER SERVICE.
    USE DATA WITH CAUTION...ESPECIALLY DEWPOINT AND RELATIVE
    HUMIDITY OBSERVATIONS.

INZ001>003-010>013-019-020-200800-
NORTHWEST INDIANA

CITY           SKY/WX    TMP DP  RH WIND       PRES   REMARKS
GARY /AIRPORT/ PTCLDY    42  40  90 S5        30.14S
KNOX *+        CLOUDY    39  21  48 SE3       30.15S
MONTICELLO +   CLOUDY    42  40  93 CALM      30.14S

$$

LMZ046-743>745-200800-
SOUTHERN LAKE MICHIGAN

STATION/POSITION TIME  TEMP    WIND        PRES    WAVE
                       AIR SEA DIR/SP/G            HT
                 (UTC) (F)     (DEG/KT/KT) (MB)    (FT)
BURNS HARBOR     0640   54     140/  6/ 10 1021.0S
MICHIGAN CITY    0630   50     110/  6/  7   N/A

$$

INZ004-005-014>016-021>024-200800-
NORTH CENTRAL INDIANA

CITY           SKY/WX    TMP DP  RH WIND       PRES   REMARKS
GOSHEN         CLOUDY    36  30  79 SE3       30.15F
SOUTH BEND     CLOUDY    36  26  67 E3        30.16S
WARSAW +       CLOUDY    34  32  93 CALM      30.16S

$$

INZ006>009-017-018-025>027-200800-
NORTHEAST INDIANA

CITY           SKY/WX    TMP DP  RH WIND       PRES   REMARKS
ANGOLA *+      CLEAR     36  36 100 CALM      30.17R
FORT WAYNE     MOCLDY    36  31  82 E3        30.16F
KENDALLVILLE + CLOUDY    39  34  81 CALM      30.16S

$$

INZ028-029-035-036-043>045-051>053-200800-
WEST CENTRAL INDIANA

CITY           SKY/WX    TMP DP  RH WIND       PRES   REMARKS
LAFAYETTE      PTCLDY    42  42 100 E3        30.14S FOG
TERRE HAUTE    FOG       40  39  97 E6        30.14F VSB 1/4

$$

INZ030>032-037>040-046>048-054>057-064-065-200800-
CENTRAL INDIANA

CITY           SKY/WX    TMP DP  RH WIND       PRES   REMARKS
CP ATTERBURY + CLOUDY    34  34 100 CALM      30.17S VSB<1/4
FRANKFORT +    CLOUDY    41  40  95 SE5       30.16S FOG
GREENWOOD *+   CLEAR     46  46  99 SE5       30.16F
INDIANAPOLIS   CLOUDY    46  44  93 SE5       30.15F FOG
-EAGLE CREEK   CLOUDY    42  39  89 CALM      30.15F FOG
KOKOMO +       CLEAR     42  41  96 CALM      30.17R FOG
MT COMFORT *+    N/A     39  39 100 SE3       30.16F VSB 1/4
SHELBYVILLE    FOG       39  37  92 SE5       30.15F VSB 1/4

$$

INZ033-034-041-042-049-050-058-059-200800-
EAST CENTRAL INDIANA

CITY           SKY/WX    TMP DP  RH WIND       PRES   REMARKS
MUNCIE         CLEAR     45  42  89 CALM      30.16F FOG

$$

INZ060-061-067>069-081>083-085>088-200800-
SOUTHWEST INDIANA

CITY           SKY/WX    TMP DP  RH WIND       PRES   REMARKS
EVANSVILLE     FOG       45  43  93 NE3       30.15R VSB 1/4
HUNTINGBURG *+ CLOUDY    45  45 100 E6        30.15S VSB 1/4

$$

INZ062-063-066-070>080-084-089>092-200800-
SOUTH CENTRAL AND SOUTHEAST INDIANA

CITY           SKY/WX    TMP DP  RH WIND       PRES   REMARKS
BLOOMINGTON    FOG       37  35  92 CALM      30.15S VSB<1/4
MADISON *+       N/A     37  36  93 CALM      30.19S VSB 1/4
SEYMOUR +      FOG       37  37 100 CALM      30.17  VSB 1/4

$$





USA.gov is the U.S. government's official web portal to all federal, state and local government web resources and services.